When you browse on this site, cookies collect data to enhance your experience and personalize the content and advertising you see.
Visit our Privacy Policy to learn more. By continuing to use the site, you agree to this use of cookies and data.
  • In Portugal
  • List of Countries
  • For 7 days
  • Water Temperature
  • Satellite Maps
  • Weather Map
  • Weather Widgets
  • user-avatar
    Login

    Hourly Weather Potosi

    Today, 19 February, Tuesday

    Time Temperature Precipitation Wind Pressure Humidity
    00:00 +9°C° 1.2 mm 3 mps 467 mmHg 83%
    01:00 +8°C° 1.2 mm 3 mps 467 mmHg 86%
    02:00 +8°C° 0 mm 2 mps 467 mmHg 84%
    03:00 +8°C° 1.3 mm 2 mps 467 mmHg 85%
    04:00 +7°C° 1.3 mm 2 mps 467 mmHg 85%
    05:00 +7°C° 1.3 mm 2 mps 466 mmHg 86%
    06:00 +8°C° 0.8 mm 2 mps 467 mmHg 82%
    07:00 +8°C° 0.8 mm 2 mps 467 mmHg 77%
    08:00 +9°C° 0.8 mm 2 mps 468 mmHg 73%
    09:00 +10°C° 0.6 mm 2 mps 468 mmHg 70%
    10:00 +12°C° 0.6 mm 2 mps 469 mmHg 66%
    11:00 +13°C° 0.6 mm 2 mps 469 mmHg 63%
    12:00 +13°C° 1.9 mm 2 mps 469 mmHg 62%
    13:00 +12°C° 1.9 mm 3 mps 469 mmHg 60%
    14:00 +12°C° 1.9 mm 3 mps 469 mmHg 59%
    15:00 +12°C° 2.3 mm 3 mps 468 mmHg 62%
    16:00 +11°C° 2.3 mm 3 mps 467 mmHg 64%
    17:00 +11°C° 2.3 mm 3 mps 466 mmHg 67%
    18:00 +10°C° 0.4 mm 3 mps 466 mmHg 71%
    19:00 +9°C° 0.4 mm 3 mps 466 mmHg 76%
    20:00 +8°C° 0.4 mm 3 mps 466 mmHg 80%
    21:00 +8°C° 0.1 mm 3 mps 467 mmHg 82%
    22:00 +8°C° 0.1 mm 2 mps 467 mmHg 83%
    23:00 +8°C° 0.1 mm 2 mps 468 mmHg 84%

    Tomorrow, 20 February, Wednesday

    Time Temperature Precipitation Wind Pressure Humidity
    00:00 +8°C° 0.4 mm 2 mps 468 mmHg 84%
    01:00 +7°C° 0.4 mm 2 mps 468 mmHg 83%
    02:00 +8°C° 0.4 mm 1 mps 467 mmHg 83%
    03:00 +8°C° 0.2 mm 1 mps 467 mmHg 84%
    04:00 +8°C° 0.2 mm 1 mps 467 mmHg 84%
    05:00 +7°C° 0.2 mm 2 mps 467 mmHg 85%
    06:00 +7°C° 0.1 mm 2 mps 467 mmHg 84%
    07:00 +7°C° 0.1 mm 2 mps 468 mmHg 83%
    08:00 +7°C° 0.1 mm 2 mps 468 mmHg 83%
    09:00 +8°C° 0.3 mm 2 mps 469 mmHg 76%
    10:00 +10°C° 0.3 mm 2 mps 469 mmHg 69%
    11:00 +12°C° 0.3 mm 2 mps 470 mmHg 62%
    12:00 +13°C° 1.1 mm 2 mps 470 mmHg 59%
    13:00 +13°C° 1.1 mm 2 mps 469 mmHg 57%
    14:00 +13°C° 1.1 mm 3 mps 469 mmHg 55%
    15:00 +13°C° 1.8 mm 3 mps 469 mmHg 57%
    16:00 +12°C° 1.8 mm 3 mps 468 mmHg 60%
    17:00 +12°C° 1.8 mm 3 mps 467 mmHg 63%
    18:00 +11°C° 1.2 mm 3 mps 467 mmHg 69%
    19:00 +10°C° 1.2 mm 3 mps 467 mmHg 74%
    20:00 +9°C° 1.2 mm 3 mps 467 mmHg 80%
    21:00 +9°C° 0.1 mm 3 mps 467 mmHg 81%
    22:00 +8°C° 0.1 mm 3 mps 467 mmHg 82%
    23:00 +8°C° 0.1 mm 2 mps 468 mmHg 83%

    Day after tomorrow, 21 February, Thursday

    Time Temperature Precipitation Wind Pressure Humidity
    00:00 +8°C° 0.1 mm 2 mps 468 mmHg 84%
    01:00 +8°C° 0.1 mm 2 mps 468 mmHg 84%
    02:00 +9°C° 0.1 mm 1 mps 467 mmHg 84%
    03:00 +8°C° 0 mm 1 mps 467 mmHg 84%
    04:00 +8°C° 0 mm 1 mps 467 mmHg 84%
    05:00 +8°C° 0 mm 1 mps 467 mmHg 83%
    06:00 +8°C° 0 mm 1 mps 467 mmHg 82%
    07:00 +9°C° 0 mm 1 mps 468 mmHg 80%
    08:00 +9°C° 0 mm 1 mps 468 mmHg 78%
    09:00 +10°C° 0.1 mm 1 mps 469 mmHg 71%
    10:00 +12°C° 0.1 mm 2 mps 470 mmHg 64%
    11:00 +13°C° 0.1 mm 2 mps 471 mmHg 58%
    12:00 +13°C° 0.5 mm 3 mps 471 mmHg 54%
    13:00 +14°C° 0.5 mm 4 mps 471 mmHg 51%
    14:00 +15°C° 0.5 mm 4 mps 471 mmHg 48%
    15:00 +14°C° 0.7 mm 5 mps 470 mmHg 51%
    16:00 +14°C° 0.7 mm 5 mps 470 mmHg 53%
    17:00 +13°C° 0.7 mm 5 mps 469 mmHg 56%
    18:00 +12°C° 0.3 mm 5 mps 469 mmHg 62%
    19:00 +11°C° 0.3 mm 4 mps 469 mmHg 68%
    20:00 +10°C° 0.3 mm 4 mps 468 mmHg 74%
    21:00 +10°C° 0.1 mm 3 mps 469 mmHg 77%
    22:00 +9°C° 0.1 mm 3 mps 469 mmHg 79%
    23:00 +9°C° 0.1 mm 2 mps 469 mmHg 81%

    22 February, Friday

    Time Temperature Precipitation Wind Pressure Humidity
    00:00 +9°C° 0 mm 2 mps 469 mmHg 81%
    01:00 +8°C° 0 mm 2 mps 469 mmHg 82%
    02:00 +9°C° 0 mm 1 mps 468 mmHg 83%
    03:00 +9°C° 0 mm 1 mps 468 mmHg 84%
    04:00 +9°C° 0 mm 1 mps 468 mmHg 85%
    05:00 +8°C° 0 mm 1 mps 468 mmHg 86%
    06:00 +9°C° 0 mm 1 mps 468 mmHg 83%
    07:00 +9°C° 0 mm 1 mps 469 mmHg 79%
    08:00 +9°C° 0 mm 1 mps 470 mmHg 76%
    09:00 +11°C° 0 mm 1 mps 470 mmHg 65%
    10:00 +12°C° 0 mm 2 mps 471 mmHg 54%
    11:00 +14°C° 0 mm 2 mps 472 mmHg 43%
    12:00 +14°C° 0 mm 3 mps 472 mmHg 39%
    13:00 +15°C° 0 mm 4 mps 472 mmHg 34%
    14:00 +17°C° 0 mm 4 mps 473 mmHg 30%
    15:00 +16°C° 0 mm 5 mps 472 mmHg 32%
    16:00 +15°C° 0 mm 6 mps 472 mmHg 34%
    17:00 +15°C° 0 mm 7 mps 471 mmHg 37%
    18:00 +14°C° 0.2 mm 6 mps 471 mmHg 46%
    19:00 +12°C° 0.2 mm 5 mps 470 mmHg 55%
    20:00 +11°C° 0.2 mm 4 mps 470 mmHg 64%
    21:00 +10°C° 0.1 mm 3 mps 470 mmHg 68%
    22:00 +10°C° 0.1 mm 2 mps 470 mmHg 72%
    23:00 +9°C° 0.1 mm 2 mps 470 mmHg 76%

    23 February, Saturday

    Time Temperature Precipitation Wind Pressure Humidity
    00:00 +10°C° 0.1 mm 1 mps 469 mmHg 77%
    01:00 +9°C° 0.1 mm 1 mps 469 mmHg 78%
    02:00 +9°C° 0.1 mm 1 mps 468 mmHg 79%
    03:00 +9°C° 0 mm 1 mps 468 mmHg 81%
    04:00 +8°C° 0 mm 1 mps 468 mmHg 83%
    05:00 +8°C° 0 mm 1 mps 467 mmHg 85%
    06:00 +8°C° 0 mm 0 mps 468 mmHg 79%
    07:00 +8°C° 0 mm 0 mps 469 mmHg 73%
    08:00 +9°C° 0 mm 0 mps 469 mmHg 67%
    09:00 +11°C° 0 mm 1 mps 470 mmHg 55%
    10:00 +13°C° 0 mm 1 mps 471 mmHg 43%
    11:00 +15°C° 0 mm 2 mps 472 mmHg 32%
    12:00 +16°C° 0 mm 2 mps 472 mmHg 29%
    13:00 +17°C° 0 mm 3 mps 471 mmHg 26%
    14:00 +18°C° 0 mm 4 mps 471 mmHg 24%
    15:00 +18°C° 0 mm 4 mps 471 mmHg 24%
    16:00 +18°C° 0 mm 4 mps 470 mmHg 25%
    17:00 +17°C° 0 mm 5 mps 470 mmHg 25%
    18:00 +15°C° 0 mm 4 mps 469 mmHg 31%
    19:00 +14°C° 0 mm 4 mps 468 mmHg 36%
    20:00 +12°C° 0 mm 3 mps 468 mmHg 42%
    21:00 +12°C° 0 mm 3 mps 468 mmHg 46%
    22:00 +12°C° 0 mm 2 mps 468 mmHg 50%
    23:00 +12°C° 0 mm 1 mps 468 mmHg 55%

    24 February, Sunday

    Time Temperature Precipitation Wind Pressure Humidity
    00:00 +11°C° 0 mm 1 mps 467 mmHg 58%
    01:00 +10°C° 0 mm 1 mps 467 mmHg 61%
    02:00 +9°C° 0 mm 0 mps 466 mmHg 64%
    03:00 +8°C° 0 mm 0 mps 466 mmHg 65%
    04:00 +8°C° 0 mm 0 mps 465 mmHg 65%
    05:00 +7°C° 0 mm 0 mps 465 mmHg 66%
    06:00 +10°C° 0 mm 1 mps 466 mmHg 58%
    07:00 +11°C° 0 mm 1 mps 467 mmHg 51%
    08:00 +12°C° 0 mm 1 mps 468 mmHg 44%
    09:00 +14°C° 0 mm 1 mps 469 mmHg 37%
    10:00 +15°C° 0 mm 2 mps 470 mmHg 31%
    11:00 +17°C° 0 mm 2 mps 470 mmHg 24%
    12:00 +18°C° 0 mm 3 mps 470 mmHg 23%
    13:00 +19°C° 0 mm 4 mps 470 mmHg 22%
    14:00 +20°C° 0 mm 5 mps 470 mmHg 21%
    15:00 +19°C° 0 mm 6 mps 470 mmHg 23%
    16:00 +18°C° 0 mm 7 mps 469 mmHg 25%
    17:00 +17°C° 0 mm 8 mps 468 mmHg 27%
    18:00 +15°C° 0 mm 7 mps 467 mmHg 37%
    19:00 +14°C° 0 mm 7 mps 467 mmHg 47%
    20:00 +11°C° 0 mm 6 mps 466 mmHg 57%
    21:00 +10°C° 0.3 mm 5 mps 466 mmHg 60%
    22:00 +11°C° 0.3 mm 3 mps 467 mmHg 64%
    23:00 +10°C° 0.3 mm 2 mps 467 mmHg 68%
    Show more